Time,TemperatureF,DewpointF,PressureIn,WindDirection,WindDirectionDegrees,WindSpeedMPH,WindSpeedGustMPH,Humidity,HourlyPrecipIn,Conditions,Clouds,dailyrainin,SoftwareType,DateUTC
2013-03-19 06:00:00,40.9,36.4,29.73,SW,225,0.0,0.0,84,0.00,,,0.00,WUHU216HW,2013-03-19 13:00:00,
2013-03-19 06:05:00,40.9,36.4,29.73,SW,225,0.0,0.0,84,0.00,,,0.00,WUHU216HW,2013-03-19 13:05:00,
2013-03-19 06:10:00,40.9,36.4,29.73,SW,225,0.0,0.0,84,0.00,,,0.00,WUHU216HW,2013-03-19 13:10:00,
2013-03-19 06:30:00,40.7,36.2,29.73,SW,225,0.0,0.0,84,0.00,,,0.00,WUHU216HW,2013-03-19 13:30:00,
2013-03-19 06:35:00,40.7,36.2,29.73,SW,225,0.0,0.0,84,0.00,,,0.00,WUHU216HW,2013-03-19 13:35:00,
2013-03-19 07:00:00,40.9,36.6,29.73,SW,225,0.0,0.0,85,0.00,,,0.00,WUHU216HW,2013-03-19 14:00:00,
2013-03-19 07:05:00,40.9,36.6,29.73,SW,225,0.0,0.0,85,0.00,,,0.00,WUHU216HW,2013-03-19 14:05:00,
2013-03-19 07:30:00,41.2,37.0,29.73,SW,225,0.0,0.0,85,0.00,,,0.00,WUHU216HW,2013-03-19 14:30:00,
2013-03-19 07:35:00,41.2,37.0,29.73,SW,225,0.0,0.0,85,0.00,,,0.00,WUHU216HW,2013-03-19 14:35:00,
2013-03-19 08:00:00,41.6,37.4,29.73,SW,225,0.0,0.0,85,0.00,,,0.00,WUHU216HW,2013-03-19 15:00:00,
2013-03-19 08:05:00,41.6,37.4,29.73,SW,225,0.0,0.0,85,0.00,,,0.00,WUHU216HW,2013-03-19 15:05:00,
2013-03-19 08:30:00,42.7,38.7,29.73,SW,225,0.0,0.0,86,0.00,,,0.00,WUHU216HW,2013-03-19 15:30:00,
2013-03-19 08:35:00,42.7,38.7,29.73,SW,225,0.0,0.0,86,0.00,,,0.00,WUHU216HW,2013-03-19 15:35:00,
2013-03-19 09:00:00,43.6,39.3,29.72,ENE,68,0.9,0.9,85,0.00,,,0.00,WUHU216HW,2013-03-19 16:00:00,
2013-03-19 09:05:00,43.6,39.3,29.72,ENE,68,0.9,0.9,85,0.00,,,0.00,WUHU216HW,2013-03-19 16:05:00,
2013-03-19 09:30:00,44.6,39.8,29.72,ENE,68,0.0,0.0,83,0.00,,,0.00,WUHU216HW,2013-03-19 16:30:00,
2013-03-19 09:35:00,44.6,39.8,29.72,ENE,68,0.0,0.0,83,0.00,,,0.00,WUHU216HW,2013-03-19 16:35:00,
2013-03-19 10:00:00,45.7,40.6,29.71,SSE,158,0.0,0.0,82,0.00,,,0.00,WUHU216HW,2013-03-19 17:00:00,
2013-03-19 10:05:00,45.7,40.6,29.71,SSE,158,0.0,0.0,82,0.00,,,0.00,WUHU216HW,2013-03-19 17:05:00,
2013-03-19 10:30:00,46.8,41.3,29.70,North,0,0.0,0.0,81,0.00,,,0.00,WUHU216HW,2013-03-19 17:30:00,
2013-03-19 10:35:00,46.8,41.3,29.70,North,0,0.0,0.0,81,0.00,,,0.00,WUHU216HW,2013-03-19 17:35:00,
2013-03-19 11:00:00,45.9,40.4,29.70,WSW,248,0.0,0.0,81,0.00,,,0.00,WUHU216HW,2013-03-19 18:00:00,
2013-03-19 19:00:00,49.3,45.3,29.47,NNW,338,0.0,0.0,86,0.05,,,0.00,WUHU216HW,2013-03-20 02:00:00,
2013-03-19 19:05:00,49.3,45.3,29.47,NNW,338,0.0,0.0,86,0.04,,,0.18,WUHU216HW,2013-03-20 02:05:00,
2013-03-19 19:10:00,49.3,45.3,29.47,NNW,338,0.0,0.0,86,0.04,,,0.18,WUHU216HW,2013-03-20 02:10:00,
2013-03-19 19:30:00,48.6,45.2,29.45,WSW,248,0.0,0.0,88,0.03,,,0.18,WUHU216HW,2013-03-20 02:30:00,
2013-03-19 19:35:00,48.6,45.2,29.45,WSW,248,0.0,0.0,88,0.03,,,0.18,WUHU216HW,2013-03-20 02:35:00,
2013-03-19 20:00:00,49.9,45.8,29.43,WSW,248,0.0,0.0,86,0.03,,,0.20,WUHU216HW,2013-03-20 03:00:00,
2013-03-19 20:05:00,49.9,45.8,29.43,WSW,248,0.0,0.0,86,0.03,,,0.20,WUHU216HW,2013-03-20 03:05:00,
2013-03-19 20:30:00,48.2,44.9,29.42,West,270,0.0,0.0,88,0.06,,,0.20,WUHU216HW,2013-03-20 03:30:00,
2013-03-19 20:35:00,48.2,44.9,29.42,West,270,0.0,0.0,88,0.06,,,0.20,WUHU216HW,2013-03-20 03:35:00,
2013-03-19 21:00:00,47.5,44.5,29.42,NNW,338,0.0,0.0,89,0.10,,,0.26,WUHU216HW,2013-03-20 04:00:00,
2013-03-19 21:05:00,47.5,44.5,29.42,NNW,338,0.0,0.0,89,0.10,,,0.26,WUHU216HW,2013-03-20 04:05:00,
2013-03-19 21:30:00,47.7,45.0,29.40,SSW,203,0.0,0.0,90,0.13,,,0.31,WUHU216HW,2013-03-20 04:30:00,
2013-03-19 21:35:00,47.7,45.0,29.40,SSW,203,0.0,0.0,90,0.13,,,0.31,WUHU216HW,2013-03-20 04:35:00,
2013-03-19 22:00:00,47.5,45.1,29.38,SSW,203,0.2,0.2,91,0.12,,,0.39,WUHU216HW,2013-03-20 05:00:00,
2013-03-19 22:05:00,47.5,45.1,29.38,SSW,203,0.2,0.2,91,0.12,,,0.39,WUHU216HW,2013-03-20 05:05:00,
2013-03-19 22:30:00,48.2,45.8,29.37,SSW,203,0.0,0.0,91,0.04,,,0.43,WUHU216HW,2013-03-20 05:30:00,
2013-03-19 22:35:00,48.2,45.8,29.37,SSW,203,0.0,0.0,91,0.04,,,0.43,WUHU216HW,2013-03-20 05:35:00,
2013-03-19 23:00:00,48.6,46.2,29.38,WSW,248,1.1,1.1,91,0.03,,,0.43,WUHU216HW,2013-03-20 06:00:00,
2013-03-19 23:05:00,48.6,46.2,29.38,WSW,248,1.1,1.1,91,0.03,,,0.43,WUHU216HW,2013-03-20 06:05:00,